Location: Newark
(39.9500°N, 8.6833°E)
Time: 11:19:51
(UTC+00:00)

NO-84 - Pass Details

Date: 29 February 2020
Orbit: 328 x 491 km, 55.0° (Epoch: 01 April)

Event Time Altitude Azimuth Distance (km) Brightness Sun altitude
Exits shadow 04:10:48 63° 161° (SSE) 529 ? -21.6°
Drops below altitude 10° 04:13:53 10° 139° (SE) 1,589 ? -21.0°
Sets 04:15:57 0° 138° (SE) 2,430 ? -20.6°
